Regional Weather Roundup
Issued by NWS Upton, NY

Home | Current Version | Previous Version | Text Only | Print | Product List | Glossary On
Versions: 1 2 3 4 5 6 7 8 9 10 11 12 13 14 15 16 17 18 19 20 21 22 23 24 25 26 27 28 29 30
000
ASUS41 KOKX 260004
RWROKX

REGIONAL WEATHER ROUNDUP
NATIONAL WEATHER SERVICE NEW YORK NY
800 PM EDT THU AUG 25 2016

NOTE: "FAIR" INDICATES FEW OR NO CLOUDS BELOW 12,000 FEET WITH NO
SIGNIFICANT WEATHER AND/OR OBSTRUCTIONS TO VISIBILITY.

NYZ071-072-176-178-NJZ106-104-260100-
NEW YORK CITY METRO AREA

CITY           SKY/WX    TMP DP  RH WIND       PRES   REMARKS
Central Park     N/A     82  70  65 MISG        N/A
LaGuardia APRT CLOUDY    82  70  66 S8        29.99S
Kennedy INTL   MOCLDY    78  74  87 S16G23    30.01S
Newark/Liberty CLOUDY    83  70  64 SW13      29.99S
Bronx Bot Gard   N/A     79  68  69 SE1       30.00S
Wall St Helipt CLOUDY    81  72  74 SW7       30.00S
Teterboro      CLOUDY    81  70  69 SW7       29.99R
$$

NYZ177-179-078>081-260100-
LONG ISLAND NEW YORK

CITY           SKY/WX    TMP DP  RH WIND       PRES   REMARKS
Farmingdale    CLOUDY    78  68  71 SW15G24   30.01S
MacArthur/ISP  MOCLDY    77  68  73 SW8       30.02R
Shirley        CLOUDY    76  69  79 S8        30.04R
Riverhead      NOT AVBL
Westhampton    CLOUDY    75  68  78 SW7       30.05S
Southampton      N/A     73  70  88 SW6       30.00S
Bridgehampton    N/A     73  66  78 S1        30.03S
East Hampton   FAIR      73  67  83 SW6       30.04R
Montauk          N/A     74  68  81 SW7       30.05S
$$

NYZ052-065-067-260100-
HUDSON VALLEY

CITY           SKY/WX    TMP DP  RH WIND       PRES   REMARKS
White Plains   DRIZZLE   76  69  79 S6        30.02R
Newburgh       MOCLDY    79  73  83 S6        30.01S
Montgomery     CLOUDY    78  71  79 SW6       29.99S
Poughkeepsie   CLOUDY    76  68  76 VRB6      29.98S
Albany         CLOUDY    76  73  91 S5        29.96S
$$

NJZ001-105-106-008-010-013-015-019>022-104-260100-
NEW JERSEY

CITY           SKY/WX    TMP DP  RH WIND       PRES   REMARKS
Newark/Liberty CLOUDY    83  70  64 SW13      29.99S
Teterboro      CLOUDY    81  70  69 SW7       29.99R
Caldwell       MOCLDY    80  72  76 VRB3      30.00S
Morristown     CLOUDY    79  73  83 W5        30.00S
Somerville     PTCLDY    78  72  81 CALM      29.98S
Linden         MOCLDY    83  68  61 CALM      30.01S
Sussex         PTCLDY    76  73  91 CALM      30.00S
Abdover          N/A     74  71  91 CALM      30.02S
Trenton        CLEAR     81  70  69 SW8       30.01S
Millville      CLEAR     78  73  84 CALM      30.04R
Atlantic City  PTCLDY    79  66  64 S8        30.04R
Wrightstown    CLEAR     78  71  76 SW9       30.00R
Toms River     MOCLDY    77  66  68 S5        30.03S
Belmar         PTCLDY    79  68  69 S8        30.03S
$$

PAZ047>061-062-071-260100-
EASTERN PENNSYLVANIA

CITY           SKY/WX    TMP DP  RH WIND       PRES   REMARKS
Philadelphia   MOCLDY    83  71  67 SW12      30.02S
Allentown      CLEAR     81  70  69 SW7       30.01R
Scranton       CLEAR     77  72  84 VRB3      30.01S
$$

CTZ002-004>006-009-010-012-RIZ004-006-007-MAZ004-011-015-260100-
SOUTHERN NEW ENGLAND
 IN CT

CITY           SKY/WX    TMP DP  RH WIND       PRES   REMARKS
Bradley INTL   CLOUDY    78  65  63 S14       30.00S
Hartford       CLOUDY    81  66  60 S9        30.00R
Danbury        CLOUDY    74  66  76 SW3       30.03R
Wtrbury/Oxford MOCLDY    73  63  68 SW9       30.06R
Bridgeport     CLOUDY    80  68  66 SW10      30.01S
Meriden        CLOUDY    79  65  62 S7        30.01S
New Haven      CLOUDY    77  68  73 S7        30.02S
Chester        MOCLDY    75  66  73 VRB7      30.04R
Groton         PTCLDY    75  68  78 S8        30.03R
Wilimantic     CLOUDY    77  67  71 S5        30.03R

 IN RI

CITY           SKY/WX    TMP DP  RH WIND       PRES   REMARKS
Providence     MOCLDY    75  64  68 S12       30.02S
Block Island   CLEAR     73  68  84 SW9       30.05S
Westerly       PTCLDY    75  65  70 SW8       30.04S
 IN MA

CITY           SKY/WX    TMP DP  RH WIND       PRES   REMARKS
Boston         MOCLDY    80  66  62 SW16      29.98S
Worcester      CLOUDY    74  63  68 SW14      30.03R
Westfield      CLOUDY    78  66  66 S9        29.99R
Provincetown   CLEAR     71  66  84 SW14      30.03R
Nantucket      CLEAR     70  66  87 S12       30.06R
$$

ANZ330-335-338-340-345-350-353-355-260100-
COASTAL MARINE OBSERVATIONS


STATION/POSITION TIME  SKY/WX   TEMP    WIND        PRES    VSBY  WAVE
                                AIR SEA DIR/SP/G                  HT/PER
                 (UTC)          (F)     (DEG/KT/KT) (MB)    (MI)  (FT/S)
NY HARB ENTRANCE 2250            76 73  200/ 19/ 23 1015.6          5/ 5
20S FIRE ISLAND  2250            77 75  210/ 19/ 21 1016.2          4/ 5
GREAT SOUTH BAY  2330            76 79  190/ 16/ 19   N/A
23 SSW MONTAUK P 2250            76 74  220/ 16/ 19 1017.5          3/ 4
15 E BARNEGAT LI 2300               75                N/A           3/10
HUDSON CANYON    2250            78 78              1017.7          3/ 9
KINGS POINT      2300            77 76              1015.7
EXECUTION ROCKS  2300            78     180/ 10/ 14   N/A
CENTRAL LI SOUND 2300            77 75  200/ 14/ 16   N/A           2/ 3
EASTERN LI SOUND 2300            73 70  210/  4/  6   N/A
ROBBINS REEF     2300            82                 1014.9
$$


>>>>>>>>>>>>>>>>>>>>>>>>>>>> KEY <<<<<<<<<<<<<<<<<<<<<<<<<<<
>                                                          <
>     SKY/WX - Sky Condition/Present Weather               <
>     TMP    - Temperature in Fahrenheit                   <
>     DP     - Dew Point in Fahrenheit                     <
>     RH     - Relative Humidity in Percent                <
>     WIND   - Direction (from) and Speed in MPH           <
>     PRES   - Mean Sea Level Pressure (inches of Hg)      <
>     WCI    - Wind Chill Index                            <
>     VSB    - VISIBILITY IN MILES                         <
>     HX     - HEAT INDEX                                  <
>     TC     - TEMPERATURE IN CELSIUS                      <
>     VRB    - VARIABLE WIND DIRECTION                     <
>                                                          <
>>>>>>>>>>>>>>>>>>>>>>>>>>>> KEY <<<<<<<<<<<<<<<<<<<<<<<<<<<




USA.gov is the U.S. government's official web portal to all federal, state and local government web resources and services.